Time,TemperatureF,DewpointF,PressureIn,WindDirection,WindDirectionDegrees,WindSpeedMPH,WindSpeedGustMPH,Humidity,HourlyPrecipIn,Conditions,Clouds,dailyrainin,SolarRadiationWatts/m^2,SoftwareType,DateUTC
2013-07-31 00:01:00,81.3,77.7,30.07,East,83,0.0,3.0,89,0.00,,,0.08,0.0,meteohub,2013-07-31 04:01:00,
2013-07-31 00:02:00,81.3,77.7,30.07,East,83,0.0,3.0,89,0.00,,,0.08,0.0,meteohub,2013-07-31 04:02:00,
2013-07-31 00:07:00,81.3,77.7,30.07,East,83,0.0,3.0,89,0.00,,,0.00,0.0,meteohub,2013-07-31 04:07:00,
2013-07-31 00:12:00,81.1,77.9,30.07,East,83,0.0,1.0,90,0.00,,,0.00,0.0,meteohub,2013-07-31 04:12:00,
2013-07-31 00:17:00,81.1,77.9,30.07,East,83,0.0,0.0,90,0.00,,,0.00,0.0,meteohub,2013-07-31 04:17:00,
2013-07-31 00:22:00,81.0,78.1,30.07,East,83,0.0,0.0,91,0.00,,,0.00,0.0,meteohub,2013-07-31 04:22:00,
2013-07-31 00:27:00,80.8,77.9,30.06,East,85,0.0,0.0,91,0.00,,,0.00,0.0,meteohub,2013-07-31 04:27:00,
2013-07-31 00:32:00,80.8,77.9,30.06,East,85,0.0,1.0,91,0.00,,,0.00,0.0,meteohub,2013-07-31 04:32:00,
2013-07-31 00:37:00,80.4,77.5,30.06,East,83,0.0,1.0,91,0.00,,,0.00,0.0,meteohub,2013-07-31 04:37:00,
2013-07-31 00:42:00,80.2,77.7,30.06,East,83,0.0,1.0,92,0.00,,,0.00,0.0,meteohub,2013-07-31 04:42:00,
2013-07-31 00:47:00,80.1,77.5,30.06,East,83,0.0,0.0,92,0.00,,,0.00,0.0,meteohub,2013-07-31 04:47:00,
2013-07-31 00:52:00,80.1,77.5,30.06,East,83,0.0,0.0,92,0.00,,,0.00,0.0,meteohub,2013-07-31 04:52:00,
2013-07-31 00:57:00,80.2,77.7,30.06,East,83,0.0,0.0,92,0.00,,,0.00,0.0,meteohub,2013-07-31 04:57:00,
2013-07-31 01:02:00,80.2,77.7,30.06,East,83,0.0,0.0,92,0.00,,,0.00,0.0,meteohub,2013-07-31 05:02:00,
2013-07-31 01:08:00,80.2,77.7,30.06,East,85,0.0,0.0,92,0.00,,,0.00,0.0,meteohub,2013-07-31 05:08:00,
2013-07-31 01:13:00,80.2,77.7,30.05,East,86,0.0,0.0,92,0.00,,,0.00,0.0,meteohub,2013-07-31 05:13:00,
2013-07-31 01:18:00,80.2,77.7,30.05,East,83,0.0,0.0,92,0.00,,,0.00,0.0,meteohub,2013-07-31 05:18:00,
2013-07-31 01:23:00,80.2,77.7,30.05,East,83,0.0,0.0,92,0.00,,,0.00,0.0,meteohub,2013-07-31 05:23:00,
2013-07-31 01:28:00,80.2,77.7,30.04,East,83,0.0,0.0,92,0.00,,,0.00,0.0,meteohub,2013-07-31 05:28:00,
2013-07-31 01:33:00,80.4,77.9,30.04,East,82,0.0,0.0,92,0.00,,,0.00,0.0,meteohub,2013-07-31 05:33:00,
2013-07-31 01:38:00,80.4,77.9,30.04,East,83,0.0,0.0,92,0.00,,,0.00,0.0,meteohub,2013-07-31 05:38:00,
2013-07-31 01:43:00,80.4,77.9,30.04,East,85,0.0,0.0,92,0.00,,,0.00,0.0,meteohub,2013-07-31 05:43:00,
2013-07-31 01:48:00,80.4,77.9,30.04,East,83,0.0,0.0,92,0.00,,,0.00,0.0,meteohub,2013-07-31 05:48:00,
2013-07-31 01:53:00,80.8,78.3,30.04,East,83,0.0,0.0,92,0.00,,,0.00,0.0,meteohub,2013-07-31 05:53:00,
2013-07-31 01:58:00,80.8,78.3,30.04,East,83,0.0,0.0,92,0.00,,,0.00,0.0,meteohub,2013-07-31 05:58:00,
2013-07-31 02:03:00,81.0,78.1,30.04,East,82,0.0,0.0,91,0.00,,,0.00,0.0,meteohub,2013-07-31 06:03:00,
2013-07-31 02:08:00,81.1,78.3,30.04,East,83,0.0,0.0,91,0.00,,,0.00,0.0,meteohub,2013-07-31 06:08:00,
2013-07-31 02:13:00,81.1,78.3,30.04,East,82,0.0,0.0,91,0.00,,,0.00,0.0,meteohub,2013-07-31 06:13:00,
2013-07-31 02:19:00,81.1,78.3,30.04,East,83,0.0,0.0,91,0.00,,,0.00,0.0,meteohub,2013-07-31 06:19:00,
2013-07-31 02:24:00,81.1,78.3,30.04,East,82,0.0,0.0,91,0.00,,,0.00,0.0,meteohub,2013-07-31 06:24:00,
2013-07-31 02:29:00,81.1,78.3,30.04,East,79,0.0,3.0,91,0.00,,,0.00,0.0,meteohub,2013-07-31 06:29:00,
2013-07-31 02:34:00,81.1,77.9,30.04,ENE,72,5.0,5.0,90,0.00,,,0.00,0.0,meteohub,2013-07-31 06:34:00,
2013-07-31 02:39:00,81.1,77.9,30.04,East,95,0.0,7.0,90,0.00,,,0.00,0.0,meteohub,2013-07-31 06:39:00,
2013-07-31 02:44:00,81.1,78.3,30.04,ESE,106,0.0,7.0,91,0.00,,,0.00,0.0,meteohub,2013-07-31 06:44:00,
2013-07-31 02:49:00,81.0,78.1,30.04,ESE,106,0.0,7.0,91,0.00,,,0.00,0.0,meteohub,2013-07-31 06:49:00,
2013-07-31 02:54:00,80.8,78.3,30.04,ESE,107,0.0,6.0,92,0.00,,,0.00,0.0,meteohub,2013-07-31 06:54:00,
2013-07-31 02:59:00,80.4,77.9,30.04,ESE,107,0.0,6.0,92,0.00,,,0.00,0.0,meteohub,2013-07-31 06:59:00,
2013-07-31 03:04:00,80.2,77.7,30.04,ESE,107,0.0,0.0,92,0.00,,,0.00,0.0,meteohub,2013-07-31 07:04:00,
2013-07-31 03:09:00,80.1,77.9,30.04,ESE,107,0.0,0.0,93,0.00,,,0.00,0.0,meteohub,2013-07-31 07:09:00,
2013-07-31 03:14:00,79.9,77.7,30.04,ESE,107,0.0,0.0,93,0.00,,,0.00,0.0,meteohub,2013-07-31 07:14:00,
2013-07-31 03:19:00,79.5,77.7,30.04,ESE,107,0.0,0.0,94,0.00,,,0.00,0.0,meteohub,2013-07-31 07:19:00,
2013-07-31 03:24:00,79.3,77.5,30.04,ESE,107,0.0,0.0,94,0.00,,,0.00,0.0,meteohub,2013-07-31 07:24:00,
2013-07-31 03:29:00,79.2,77.5,30.04,ESE,107,0.0,0.0,95,0.00,,,0.00,0.0,meteohub,2013-07-31 07:29:00,
2013-07-31 03:34:00,79.2,77.5,30.04,ESE,106,0.0,0.0,95,0.00,,,0.00,0.0,meteohub,2013-07-31 07:34:00,
2013-07-31 03:39:00,79.0,77.4,30.04,ESE,107,0.0,0.0,95,0.00,,,0.00,0.0,meteohub,2013-07-31 07:39:00,
2013-07-31 03:44:00,79.0,77.7,30.03,ESE,107,0.0,0.0,96,0.00,,,0.00,0.0,meteohub,2013-07-31 07:44:00,
2013-07-31 03:50:00,78.8,77.5,30.03,ESE,107,0.0,0.0,96,0.00,,,0.00,0.0,meteohub,2013-07-31 07:50:00,
2013-07-31 03:55:00,78.8,77.5,30.03,ESE,107,0.0,0.0,96,0.00,,,0.00,0.0,meteohub,2013-07-31 07:55:00,
2013-07-31 04:00:00,78.8,77.5,30.03,ESE,109,0.0,0.0,96,0.00,,,0.00,0.0,meteohub,2013-07-31 08:00:00,
2013-07-31 04:05:00,78.8,77.5,30.03,ESE,107,0.0,0.0,96,0.00,,,0.00,0.0,meteohub,2013-07-31 08:05:00,
2013-07-31 04:10:00,78.6,77.4,30.03,ESE,109,0.0,0.0,96,0.00,,,0.00,0.0,meteohub,2013-07-31 08:10:00,
2013-07-31 04:15:00,78.6,77.4,30.03,ESE,107,0.0,0.0,96,0.00,,,0.00,0.0,meteohub,2013-07-31 08:15:00,
2013-07-31 04:20:00,78.6,77.4,30.03,ESE,107,0.0,0.0,96,0.00,,,0.00,0.0,meteohub,2013-07-31 08:20:00,
2013-07-31 04:25:00,78.4,77.2,30.03,ESE,107,0.0,0.0,96,0.00,,,0.00,0.0,meteohub,2013-07-31 08:25:00,
2013-07-31 04:30:00,78.4,77.2,30.04,ESE,109,0.0,0.0,96,0.00,,,0.00,0.0,meteohub,2013-07-31 08:30:00,
2013-07-31 04:35:00,78.3,77.4,30.04,ESE,107,0.0,0.0,97,0.00,,,0.00,0.0,meteohub,2013-07-31 08:35:00,
2013-07-31 04:40:00,78.3,77.4,30.04,ESE,107,0.0,0.0,97,0.00,,,0.00,0.0,meteohub,2013-07-31 08:40:00,
2013-07-31 04:45:00,78.3,77.4,30.04,ESE,106,0.0,0.0,97,0.00,,,0.00,0.0,meteohub,2013-07-31 08:45:00,
2013-07-31 04:50:00,78.3,77.4,30.04,ESE,106,0.0,0.0,97,0.00,,,0.00,0.0,meteohub,2013-07-31 08:50:00,
2013-07-31 04:55:00,78.1,77.2,30.04,ESE,106,0.0,0.0,97,0.00,,,0.00,0.0,meteohub,2013-07-31 08:55:00,
2013-07-31 05:00:00,77.9,77.0,30.04,ESE,109,0.0,0.0,97,0.00,,,0.00,0.0,meteohub,2013-07-31 09:00:00,
2013-07-31 05:05:00,77.9,77.4,30.04,ESE,107,0.0,0.0,98,0.00,,,0.00,0.0,meteohub,2013-07-31 09:05:00,
2013-07-31 05:10:00,77.9,77.4,30.04,ESE,106,0.0,0.0,98,0.00,,,0.00,0.0,meteohub,2013-07-31 09:10:00,
2013-07-31 05:15:00,77.7,77.2,30.04,ESE,107,0.0,0.0,98,0.00,,,0.00,0.0,meteohub,2013-07-31 09:15:00,
2013-07-31 05:20:00,77.9,77.4,30.04,ESE,107,0.0,0.0,98,0.00,,,0.00,0.0,meteohub,2013-07-31 09:20:00,
2013-07-31 05:25:00,77.7,77.2,30.04,ESE,107,0.0,0.0,98,0.00,,,0.00,0.0,meteohub,2013-07-31 09:25:00,
2013-07-31 05:30:00,77.7,77.2,30.04,ESE,107,0.0,0.0,98,0.00,,,0.00,0.0,meteohub,2013-07-31 09:30:00,
2013-07-31 05:35:00,77.7,77.2,30.04,ESE,107,0.0,0.0,98,0.00,,,0.00,0.0,meteohub,2013-07-31 09:35:00,
2013-07-31 05:40:00,77.5,77.0,30.04,ESE,107,0.0,0.0,98,0.00,,,0.00,0.0,meteohub,2013-07-31 09:40:00,
2013-07-31 05:45:00,77.5,77.0,30.04,ESE,107,0.0,0.0,98,0.00,,,0.00,0.0,meteohub,2013-07-31 09:45:00,
2013-07-31 05:50:00,77.5,77.2,30.04,ESE,107,0.0,0.0,99,0.00,,,0.00,0.0,meteohub,2013-07-31 09:50:00,
2013-07-31 05:55:00,77.4,77.0,30.04,ESE,107,0.0,0.0,99,0.00,,,0.00,0.0,meteohub,2013-07-31 09:55:00,
2013-07-31 06:00:00,77.4,77.0,30.04,ESE,109,0.0,0.0,99,0.00,,,0.00,0.0,meteohub,2013-07-31 10:00:00,
2013-07-31 06:05:00,77.5,77.2,30.04,ESE,107,0.0,0.0,99,0.00,,,0.00,0.0,meteohub,2013-07-31 10:05:00,
2013-07-31 06:10:00,77.4,77.0,30.04,ESE,109,0.0,0.0,99,0.00,,,0.00,0.0,meteohub,2013-07-31 10:10:00,
2013-07-31 06:15:00,77.4,77.0,30.04,ESE,107,0.0,0.0,99,0.00,,,0.00,11.0,meteohub,2013-07-31 10:15:00,
2013-07-31 06:20:00,77.4,77.0,30.04,ESE,106,0.0,0.0,99,0.00,,,0.00,18.0,meteohub,2013-07-31 10:20:00,
2013-07-31 06:26:00,77.5,77.2,30.04,ESE,107,0.0,0.0,99,0.00,,,0.00,28.0,meteohub,2013-07-31 10:26:00,
2013-07-31 06:31:00,77.5,77.2,30.05,ESE,107,0.0,0.0,99,0.00,,,0.00,28.0,meteohub,2013-07-31 10:31:00,
2013-07-31 06:36:00,77.7,77.2,30.05,ESE,107,0.0,0.0,98,0.00,,,0.00,44.0,meteohub,2013-07-31 10:36:00,
2013-07-31 06:41:00,77.7,77.2,30.05,ESE,107,0.0,0.0,98,0.00,,,0.00,76.0,meteohub,2013-07-31 10:41:00,
2013-07-31 06:46:00,77.9,77.4,30.05,ESE,106,0.0,0.0,98,0.00,,,0.00,28.0,meteohub,2013-07-31 10:46:00,
2013-07-31 06:51:00,77.9,77.4,30.05,ESE,107,0.0,0.0,98,0.00,,,0.00,25.0,meteohub,2013-07-31 10:51:00,
2013-07-31 06:56:00,77.9,77.0,30.05,ESE,107,0.0,0.0,97,0.00,,,0.00,25.0,meteohub,2013-07-31 10:56:00,
2013-07-31 07:01:00,78.1,77.5,30.05,ESE,103,0.0,0.0,98,0.00,,,0.00,46.0,meteohub,2013-07-31 11:01:00,
2013-07-31 07:06:00,78.1,77.2,30.05,ESE,109,0.0,0.0,97,0.00,,,0.00,90.0,meteohub,2013-07-31 11:06:00,
2013-07-31 07:11:00,78.3,77.4,30.05,ESE,107,0.0,0.0,97,0.00,,,0.00,283.0,meteohub,2013-07-31 11:11:00,
2013-07-31 07:16:00,78.8,77.9,30.06,ESE,107,0.0,0.0,97,0.00,,,0.00,280.0,meteohub,2013-07-31 11:16:00,
2013-07-31 07:21:00,79.2,77.9,30.06,ESE,107,0.0,0.0,96,0.00,,,0.00,239.0,meteohub,2013-07-31 11:21:00,
2013-07-31 07:26:00,79.9,78.6,30.06,ESE,107,0.0,0.0,96,0.00,,,0.00,252.0,meteohub,2013-07-31 11:26:00,
2013-07-31 07:31:00,80.4,78.6,30.05,ESE,107,0.0,0.0,94,0.00,,,0.00,276.0,meteohub,2013-07-31 11:31:00,
2013-07-31 07:36:00,80.8,78.6,30.05,ESE,107,1.0,0.0,93,0.00,,,0.00,299.0,meteohub,2013-07-31 11:36:00,
2013-07-31 07:41:00,81.1,78.6,30.05,ESE,106,0.0,1.0,92,0.00,,,0.00,320.0,meteohub,2013-07-31 11:41:00,
2013-07-31 07:46:00,82.0,78.8,30.05,ESE,107,0.0,1.0,90,0.00,,,0.00,336.0,meteohub,2013-07-31 11:46:00,
2013-07-31 07:52:00,82.6,79.0,30.05,ESE,107,0.0,1.0,89,0.00,,,0.00,359.0,meteohub,2013-07-31 11:52:00,
2013-07-31 07:57:00,82.8,78.8,30.05,ESE,107,0.0,3.0,88,0.00,,,0.00,380.0,meteohub,2013-07-31 11:57:00,
2013-07-31 08:02:00,82.9,79.0,30.05,ESE,109,0.0,3.0,88,0.00,,,0.00,429.0,meteohub,2013-07-31 12:02:00,
2013-07-31 08:07:00,83.1,78.8,30.05,ESE,107,0.0,5.0,87,0.00,,,0.00,111.0,meteohub,2013-07-31 12:07:00,
2013-07-31 08:12:00,83.5,79.2,30.06,ESE,107,0.0,5.0,87,0.00,,,0.00,146.0,meteohub,2013-07-31 12:12:00,
2013-07-31 08:17:00,82.8,78.4,30.06,ESE,106,2.0,5.0,87,0.00,,,0.00,90.0,meteohub,2013-07-31 12:17:00,
2013-07-31 08:22:00,82.8,78.8,30.06,ESE,109,0.0,6.0,88,0.00,,,0.00,148.0,meteohub,2013-07-31 12:22:00,
2013-07-31 08:27:00,82.8,78.8,30.06,ESE,107,0.0,6.0,88,0.00,,,0.00,582.0,meteohub,2013-07-31 12:27:00,
2013-07-31 08:32:00,83.7,79.3,30.06,ESE,109,0.0,7.0,87,0.00,,,0.00,544.0,meteohub,2013-07-31 12:32:00,
2013-07-31 08:37:00,84.0,79.3,30.06,East,89,2.0,7.0,86,0.00,,,0.00,574.0,meteohub,2013-07-31 12:37:00,
2013-07-31 08:42:00,84.6,79.2,30.06,ESE,119,3.0,7.0,84,0.00,,,0.00,612.0,meteohub,2013-07-31 12:42:00,
2013-07-31 08:47:00,84.9,79.2,30.06,East,88,0.0,7.0,83,0.00,,,0.00,605.0,meteohub,2013-07-31 12:47:00,
2013-07-31 08:52:00,85.6,79.2,30.06,East,82,0.0,7.0,81,0.00,,,0.00,619.0,meteohub,2013-07-31 12:52:00,
2013-07-31 08:57:00,85.5,78.6,30.06,East,88,0.0,7.0,80,0.00,,,0.00,644.0,meteohub,2013-07-31 12:57:00,
2013-07-31 09:02:00,85.8,79.0,30.06,ESE,114,0.0,7.0,80,0.00,,,0.00,672.0,meteohub,2013-07-31 13:02:00,
2013-07-31 09:07:00,85.6,78.8,30.06,East,95,0.0,7.0,80,0.00,,,0.00,690.0,meteohub,2013-07-31 13:07:00,
2013-07-31 09:12:00,86.4,79.5,30.06,East,85,4.0,7.0,80,0.00,,,0.00,734.0,meteohub,2013-07-31 13:12:00,
2013-07-31 09:18:00,86.7,79.3,30.06,East,79,3.0,13.0,79,0.00,,,0.00,769.0,meteohub,2013-07-31 13:18:00,
2013-07-31 09:23:00,86.4,78.6,30.06,ENE,64,0.0,13.0,78,0.00,,,0.00,202.0,meteohub,2013-07-31 13:23:00,
2013-07-31 09:28:00,85.8,79.0,30.06,NE,54,0.0,13.0,80,0.00,,,0.00,695.0,meteohub,2013-07-31 13:28:00,
2013-07-31 09:33:00,86.5,79.2,30.06,ENE,78,3.0,8.0,79,0.00,,,0.00,320.0,meteohub,2013-07-31 13:33:00,
2013-07-31 09:38:00,86.4,79.0,30.06,East,86,1.0,8.0,79,0.00,,,0.00,229.0,meteohub,2013-07-31 13:38:00,
2013-07-31 09:43:00,86.2,79.0,30.07,ENE,78,10.0,10.0,79,0.00,,,0.00,201.0,meteohub,2013-07-31 13:43:00,
2013-07-31 09:48:00,85.6,78.8,30.07,ENE,68,3.0,10.0,80,0.00,,,0.00,327.0,meteohub,2013-07-31 13:48:00,
2013-07-31 09:53:00,85.6,78.8,30.07,NE,44,9.0,11.0,80,0.00,,,0.00,1015.0,meteohub,2013-07-31 13:53:00,
2013-07-31 09:58:00,86.2,79.0,30.07,ENE,76,6.0,12.0,79,0.00,,,0.00,311.0,meteohub,2013-07-31 13:58:00,
2013-07-31 10:03:00,86.4,78.6,30.07,NE,54,2.0,12.0,78,0.00,,,0.00,310.0,meteohub,2013-07-31 14:03:00,
2013-07-31 10:08:00,86.4,78.3,30.07,NE,44,10.0,12.0,77,0.00,,,0.00,260.0,meteohub,2013-07-31 14:08:00,
2013-07-31 10:13:00,86.5,78.4,30.07,East,90,3.0,12.0,77,0.00,,,0.00,984.0,meteohub,2013-07-31 14:13:00,
2013-07-31 10:18:00,87.3,79.2,30.07,NE,35,3.0,12.0,77,0.00,,,0.00,989.0,meteohub,2013-07-31 14:18:00,
2013-07-31 10:23:00,87.8,79.3,30.07,East,89,0.0,16.0,76,0.00,,,0.00,920.0,meteohub,2013-07-31 14:23:00,
2013-07-31 10:28:00,88.5,79.5,30.07,ENE,68,4.0,16.0,75,0.00,,,0.00,955.0,meteohub,2013-07-31 14:28:00,
2013-07-31 10:33:00,88.5,79.2,30.07,ENE,71,0.0,16.0,74,0.00,,,0.00,968.0,meteohub,2013-07-31 14:33:00,
2013-07-31 10:38:00,88.5,79.5,30.07,ENE,58,6.0,16.0,75,0.00,,,0.00,1035.0,meteohub,2013-07-31 14:38:00,
2013-07-31 10:43:00,88.3,79.0,30.07,ENE,66,0.0,16.0,74,0.00,,,0.00,1021.0,meteohub,2013-07-31 14:43:00,
2013-07-31 10:48:00,88.5,79.2,30.07,NE,37,6.0,13.0,74,0.00,,,0.00,978.0,meteohub,2013-07-31 14:48:00,
2013-07-31 10:53:00,89.1,79.7,30.07,ENE,69,0.0,13.0,74,0.00,,,0.00,308.0,meteohub,2013-07-31 14:53:00,
2013-07-31 10:58:00,89.1,79.7,30.07,East,89,6.0,13.0,74,0.00,,,0.00,1068.0,meteohub,2013-07-31 14:58:00,
2013-07-31 11:03:00,89.2,79.5,30.07,ENE,78,8.0,12.0,73,0.00,,,0.00,1043.0,meteohub,2013-07-31 15:03:00,
2013-07-31 11:08:00,89.8,80.4,30.07,NNE,28,10.0,12.0,74,0.00,,,0.00,1096.0,meteohub,2013-07-31 15:08:00,
2013-07-31 11:13:00,89.4,80.1,30.07,NE,52,6.0,17.0,74,0.00,,,0.00,973.0,meteohub,2013-07-31 15:13:00,
2013-07-31 11:18:00,89.2,79.5,30.07,ENE,66,6.0,17.0,73,0.00,,,0.00,1001.0,meteohub,2013-07-31 15:18:00,
2013-07-31 11:20:00,89.2,79.5,30.07,ENE,62,7.0,17.0,73,0.00,,,0.00,987.0,meteohub,2013-07-31 15:20:00,
2013-07-31 11:25:00,89.2,79.5,30.07,ENE,76,1.0,17.0,73,0.00,,,0.00,1031.0,meteohub,2013-07-31 15:25:00,
2013-07-31 11:30:00,89.2,79.5,30.07,NE,45,11.0,17.0,73,0.00,,,0.00,980.0,meteohub,2013-07-31 15:30:00,
2013-07-31 11:35:00,89.4,80.1,30.07,NE,56,1.0,17.0,74,0.00,,,0.00,1005.0,meteohub,2013-07-31 15:35:00,
2013-07-31 11:40:00,89.8,79.9,30.07,NNE,24,11.0,14.0,73,0.00,,,0.00,1006.0,meteohub,2013-07-31 15:40:00,
2013-07-31 11:45:00,89.8,79.9,30.06,East,80,6.0,19.0,73,0.00,,,0.00,1031.0,meteohub,2013-07-31 15:45:00,
2013-07-31 11:50:00,90.3,80.1,30.06,NE,56,3.0,19.0,72,0.00,,,0.00,1079.0,meteohub,2013-07-31 15:50:00,
2013-07-31 11:55:00,90.3,80.1,30.06,NE,48,6.0,19.0,72,0.00,,,0.00,264.0,meteohub,2013-07-31 15:55:00,
2013-07-31 12:00:00,90.0,80.6,30.06,ENE,68,1.0,13.0,74,0.00,,,0.00,1142.0,meteohub,2013-07-31 16:00:00,
2013-07-31 12:05:00,89.8,80.4,30.06,East,97,7.0,17.0,74,0.00,,,0.00,287.0,meteohub,2013-07-31 16:05:00,
2013-07-31 12:10:00,89.8,80.4,30.06,NE,56,2.0,17.0,74,0.00,,,0.00,287.0,meteohub,2013-07-31 16:10:00,
2013-07-31 12:15:00,90.0,79.7,30.06,NE,37,12.0,17.0,72,0.00,,,0.00,287.0,meteohub,2013-07-31 16:15:00,
2013-07-31 12:20:00,90.0,79.7,30.06,NE,38,2.0,16.0,72,0.00,,,0.00,1196.0,meteohub,2013-07-31 16:20:00,
2013-07-31 12:25:00,90.3,80.4,30.06,East,82,5.0,16.0,73,0.00,,,0.00,1149.0,meteohub,2013-07-31 16:25:00,
2013-07-31 12:30:00,90.5,80.2,30.05,NE,49,10.0,16.0,72,0.00,,,0.00,1149.0,meteohub,2013-07-31 16:30:00,
2013-07-31 12:35:00,90.7,80.1,30.05,NE,34,10.0,14.0,71,0.00,,,0.00,1047.0,meteohub,2013-07-31 16:35:00,
2013-07-31 12:40:00,90.7,80.1,30.05,NE,41,7.0,16.0,71,0.00,,,0.00,1013.0,meteohub,2013-07-31 16:40:00,
2013-07-31 12:45:00,90.1,79.9,30.05,ENE,61,6.0,16.0,72,0.00,,,0.00,1065.0,meteohub,2013-07-31 16:45:00,
2013-07-31 12:50:00,89.4,79.7,30.05,NE,41,7.0,16.0,73,0.00,,,0.00,285.0,meteohub,2013-07-31 16:50:00,
2013-07-31 12:55:00,89.8,79.5,30.05,NE,34,6.0,14.0,72,0.00,,,0.00,1059.0,meteohub,2013-07-31 16:55:00,
2013-07-31 13:00:00,89.8,79.5,30.04,NE,49,10.0,14.0,72,0.00,,,0.00,1042.0,meteohub,2013-07-31 17:00:00,
2013-07-31 13:05:00,90.0,79.7,30.04,ENE,75,6.0,14.0,72,0.00,,,0.00,1012.0,meteohub,2013-07-31 17:05:00,
2013-07-31 13:10:00,90.5,79.3,30.04,ENE,58,6.0,17.0,70,0.00,,,0.00,982.0,meteohub,2013-07-31 17:10:00,
2013-07-31 13:16:00,90.5,79.9,30.04,East,85,7.0,17.0,71,0.00,,,0.00,973.0,meteohub,2013-07-31 17:16:00,
2013-07-31 13:21:00,90.7,79.5,30.04,ESE,110,7.0,17.0,70,0.00,,,0.00,1015.0,meteohub,2013-07-31 17:21:00,
2013-07-31 13:26:00,91.2,80.1,30.04,ENE,59,5.0,16.0,70,0.00,,,0.00,999.0,meteohub,2013-07-31 17:26:00,
2013-07-31 13:31:00,91.4,80.2,30.03,East,90,6.0,16.0,70,0.00,,,0.00,957.0,meteohub,2013-07-31 17:31:00,
2013-07-31 13:36:00,90.3,79.2,30.03,ENE,62,12.0,12.0,70,0.00,,,0.00,208.0,meteohub,2013-07-31 17:36:00,
2013-07-31 13:41:00,90.3,79.7,30.03,East,80,7.0,12.0,71,0.00,,,0.00,961.0,meteohub,2013-07-31 17:41:00,
2013-07-31 13:46:00,91.0,80.2,30.02,East,85,0.0,12.0,71,0.00,,,0.00,948.0,meteohub,2013-07-31 17:46:00,
2013-07-31 13:51:00,91.2,80.1,30.02,East,85,3.0,12.0,70,0.00,,,0.00,929.0,meteohub,2013-07-31 17:51:00,
2013-07-31 13:57:00,91.2,79.7,30.02,NNE,30,6.0,12.0,69,0.00,,,0.00,961.0,meteohub,2013-07-31 17:57:00,
2013-07-31 14:02:00,91.2,80.1,30.02,NNE,31,10.0,12.0,70,0.00,,,0.00,966.0,meteohub,2013-07-31 18:02:00,
2013-07-31 14:07:00,91.0,80.2,30.02,NNE,28,12.0,14.0,71,0.00,,,0.00,920.0,meteohub,2013-07-31 18:07:00,
2013-07-31 14:12:00,90.7,80.1,30.02,NE,45,0.0,14.0,71,0.00,,,0.00,823.0,meteohub,2013-07-31 18:12:00,
2013-07-31 14:17:00,91.0,80.2,30.01,NNE,32,13.0,14.0,71,0.00,,,0.00,996.0,meteohub,2013-07-31 18:17:00,
2013-07-31 14:22:00,91.0,79.9,30.01,NNE,28,11.0,16.0,70,0.00,,,0.00,940.0,meteohub,2013-07-31 18:22:00,
2013-07-31 14:27:00,91.0,79.5,30.01,NNE,30,11.0,19.0,69,0.00,,,0.00,959.0,meteohub,2013-07-31 18:27:00,
2013-07-31 14:32:00,90.5,79.9,30.01,NE,40,5.0,19.0,71,0.00,,,0.00,915.0,meteohub,2013-07-31 18:32:00,
2013-07-31 14:38:00,90.5,79.9,30.01,East,82,7.0,19.0,71,0.00,,,0.00,866.0,meteohub,2013-07-31 18:38:00,
2013-07-31 14:43:00,91.2,80.1,30.00,ENE,73,7.0,17.0,70,0.00,,,0.00,885.0,meteohub,2013-07-31 18:43:00,
2013-07-31 14:48:00,91.2,79.7,30.00,NE,49,6.0,17.0,69,0.00,,,0.00,852.0,meteohub,2013-07-31 18:48:00,
2013-07-31 14:53:00,91.4,80.2,30.00,ENE,59,9.0,14.0,70,0.00,,,0.00,838.0,meteohub,2013-07-31 18:53:00,
2013-07-31 14:58:00,91.0,80.2,30.00,ENE,62,3.0,12.0,71,0.00,,,0.00,862.0,meteohub,2013-07-31 18:58:00,
2013-07-31 15:03:00,90.3,80.4,30.00,East,88,6.0,14.0,73,0.00,,,0.00,185.0,meteohub,2013-07-31 19:03:00,
2013-07-31 15:08:00,89.8,79.9,30.00,NE,42,6.0,16.0,73,0.00,,,0.00,836.0,meteohub,2013-07-31 19:08:00,
2013-07-31 15:13:00,90.0,80.6,29.99,NE,41,11.0,16.0,74,0.00,,,0.00,825.0,meteohub,2013-07-31 19:13:00,
2013-07-31 15:18:00,89.8,80.4,29.99,ENE,72,0.0,15.0,74,0.00,,,0.00,897.0,meteohub,2013-07-31 19:18:00,
2013-07-31 15:23:00,89.4,80.4,29.99,ENE,69,8.0,16.0,75,0.00,,,0.00,897.0,meteohub,2013-07-31 19:23:00,
2013-07-31 15:28:00,89.8,80.8,29.99,East,89,9.0,16.0,75,0.00,,,0.00,273.0,meteohub,2013-07-31 19:28:00,
2013-07-31 15:33:00,89.8,80.8,29.99,ENE,73,5.0,16.0,75,0.00,,,0.00,273.0,meteohub,2013-07-31 19:33:00,
2013-07-31 15:38:00,89.8,80.8,29.99,ESE,109,5.0,13.0,75,0.00,,,0.00,216.0,meteohub,2013-07-31 19:38:00,
2013-07-31 15:43:00,88.3,78.6,29.99,SE,143,8.0,13.0,73,0.00,,,0.00,141.0,meteohub,2013-07-31 19:43:00,
2013-07-31 15:48:00,87.4,79.3,29.99,SSE,147,6.0,13.0,77,0.00,,,0.00,93.0,meteohub,2013-07-31 19:48:00,
2013-07-31 15:53:00,85.8,79.7,29.99,SW,217,3.0,12.0,82,0.04,,,0.04,62.0,meteohub,2013-07-31 19:53:00,
2013-07-31 15:58:00,84.4,79.0,29.99,SW,226,0.0,11.0,84,0.05,,,0.05,46.0,meteohub,2013-07-31 19:58:00,
2013-07-31 16:03:00,83.1,78.4,29.99,SW,232,6.0,10.0,86,0.05,,,0.05,39.0,meteohub,2013-07-31 20:03:00,
2013-07-31 16:09:00,82.4,78.4,29.99,SW,219,7.0,10.0,88,0.05,,,0.05,33.0,meteohub,2013-07-31 20:09:00,
2013-07-31 16:14:00,81.9,78.6,30.00,SW,216,5.0,10.0,90,0.05,,,0.05,25.0,meteohub,2013-07-31 20:14:00,
2013-07-31 16:19:00,81.1,78.6,30.00,SW,217,1.0,10.0,92,0.17,,,0.17,18.0,meteohub,2013-07-31 20:19:00,
2013-07-31 16:24:00,80.2,78.6,30.00,WNW,294,0.0,10.0,95,0.58,,,0.58,21.0,meteohub,2013-07-31 20:24:00,
2013-07-31 16:29:00,80.4,79.2,30.00,NW,313,0.0,10.0,96,0.59,,,0.59,32.0,meteohub,2013-07-31 20:29:00,
2013-07-31 16:34:00,79.9,79.0,30.00,NW,315,0.0,8.0,97,0.59,,,0.59,26.0,meteohub,2013-07-31 20:34:00,
2013-07-31 16:39:00,79.3,78.4,30.00,NW,316,0.0,8.0,97,0.59,,,0.59,19.0,meteohub,2013-07-31 20:39:00,
2013-07-31 16:44:00,79.9,79.3,30.01,North,0,0.0,0.0,98,0.59,,,0.59,21.0,meteohub,2013-07-31 20:44:00,
2013-07-31 16:49:00,79.5,79.0,30.01,NNW,343,0.0,0.0,98,0.73,,,0.73,35.0,meteohub,2013-07-31 20:49:00,
2013-07-31 16:54:00,78.8,78.3,30.01,NNW,340,0.0,0.0,98,0.74,,,0.78,56.0,meteohub,2013-07-31 20:54:00,
2013-07-31 16:59:00,79.0,78.6,30.00,SE,136,1.0,0.0,99,0.82,,,0.87,44.0,meteohub,2013-07-31 20:59:00,
2013-07-31 17:04:00,78.3,77.9,30.00,SE,141,0.0,11.0,99,1.06,,,1.11,42.0,meteohub,2013-07-31 21:04:00,
2013-07-31 17:09:00,77.9,77.5,30.00,SE,140,0.0,11.0,99,1.38,,,1.41,55.0,meteohub,2013-07-31 21:09:00,
2013-07-31 17:14:00,78.1,78.1,30.00,SE,138,0.0,11.0,100,1.40,,,1.46,53.0,meteohub,2013-07-31 21:14:00,
2013-07-31 17:19:00,77.5,77.5,30.00,SE,140,0.0,3.0,100,1.30,,,1.53,63.0,meteohub,2013-07-31 21:19:00,
2013-07-31 17:24:00,77.2,77.2,30.00,SE,140,0.0,0.0,100,1.01,,,1.58,79.0,meteohub,2013-07-31 21:24:00,
2013-07-31 17:29:00,77.4,77.4,30.00,SE,143,0.0,0.0,100,1.00,,,1.59,93.0,meteohub,2013-07-31 21:29:00,
2013-07-31 17:34:00,77.5,77.5,30.00,SE,141,0.0,0.0,100,1.00,,,1.59,114.0,meteohub,2013-07-31 21:34:00,
2013-07-31 17:39:00,77.5,77.5,30.00,SE,141,0.0,0.0,100,1.01,,,1.60,109.0,meteohub,2013-07-31 21:39:00,
2013-07-31 17:44:00,78.1,78.1,30.00,SE,141,0.0,0.0,100,1.01,,,1.61,120.0,meteohub,2013-07-31 21:44:00,
2013-07-31 17:49:00,78.4,78.4,30.00,SE,140,0.0,0.0,100,0.88,,,1.65,95.0,meteohub,2013-07-31 21:49:00,
2013-07-31 17:55:00,78.8,78.8,30.00,SE,144,0.0,3.0,100,0.85,,,1.65,69.0,meteohub,2013-07-31 21:55:00,
2013-07-31 18:00:00,78.8,78.8,29.99,SE,143,0.0,3.0,100,0.69,,,1.65,63.0,meteohub,2013-07-31 22:00:00,
2013-07-31 18:05:00,78.6,78.6,29.99,SE,143,0.0,3.0,100,0.42,,,1.65,58.0,meteohub,2013-07-31 22:05:00,
2013-07-31 18:10:00,78.6,78.6,29.99,SE,141,0.0,0.0,100,0.21,,,1.65,51.0,meteohub,2013-07-31 22:10:00,
2013-07-31 18:15:00,78.8,78.8,29.99,SE,141,0.0,0.0,100,0.17,,,1.65,46.0,meteohub,2013-07-31 22:15:00,
2013-07-31 18:20:00,78.6,78.6,29.99,SE,143,0.0,0.0,100,0.08,,,1.65,42.0,meteohub,2013-07-31 22:20:00,
2013-07-31 18:25:00,78.8,78.8,29.99,SSE,164,0.0,0.0,100,0.06,,,1.65,35.0,meteohub,2013-07-31 22:25:00,
2013-07-31 18:30:00,79.0,79.0,29.99,SSE,164,0.0,0.0,100,0.06,,,1.65,35.0,meteohub,2013-07-31 22:30:00,
2013-07-31 18:35:00,79.0,79.0,29.99,SSE,162,0.0,0.0,100,0.05,,,1.65,49.0,meteohub,2013-07-31 22:35:00,
2013-07-31 18:40:00,78.8,78.8,29.99,SSE,164,0.0,0.0,100,0.05,,,1.65,21.0,meteohub,2013-07-31 22:40:00,
2013-07-31 18:45:00,78.8,78.8,29.99,SSE,164,0.0,0.0,100,0.00,,,1.65,16.0,meteohub,2013-07-31 22:45:00,
2013-07-31 18:51:00,78.8,78.8,29.99,SSE,165,0.0,0.0,100,0.00,,,1.65,11.0,meteohub,2013-07-31 22:51:00,
2013-07-31 18:56:00,78.8,78.8,29.99,SSE,162,0.0,0.0,100,0.00,,,1.65,5.0,meteohub,2013-07-31 22:56:00,
2013-07-31 19:01:00,78.8,78.8,29.99,SSE,164,0.0,0.0,100,0.00,,,1.65,0.0,meteohub,2013-07-31 23:01:00,
2013-07-31 19:06:00,78.8,78.8,29.99,SSE,164,0.0,0.0,100,0.00,,,1.65,0.0,meteohub,2013-07-31 23:06:00,
2013-07-31 19:11:00,78.8,78.8,29.99,SSE,165,0.0,0.0,100,0.00,,,1.65,0.0,meteohub,2013-07-31 23:11:00,
2013-07-31 19:16:00,78.8,78.8,30.00,SSE,162,0.0,0.0,100,0.00,,,1.65,0.0,meteohub,2013-07-31 23:16:00,
2013-07-31 19:21:00,78.8,78.8,30.00,SSE,164,0.0,0.0,100,0.00,,,1.65,0.0,meteohub,2013-07-31 23:21:00,
2013-07-31 19:26:00,78.8,78.8,30.00,SSE,164,0.0,0.0,100,0.00,,,1.65,0.0,meteohub,2013-07-31 23:26:00,
2013-07-31 19:32:00,78.8,78.8,30.01,SSE,164,0.0,0.0,100,0.00,,,1.65,0.0,meteohub,2013-07-31 23:32:00,
2013-07-31 19:37:00,78.8,78.8,30.01,SSE,164,0.0,0.0,100,0.00,,,1.65,0.0,meteohub,2013-07-31 23:37:00,
2013-07-31 19:42:00,78.8,78.8,30.01,SSE,164,0.0,0.0,100,0.00,,,1.65,0.0,meteohub,2013-07-31 23:42:00,
2013-07-31 19:47:00,78.8,78.8,30.01,SSE,165,0.0,0.0,100,0.00,,,1.65,0.0,meteohub,2013-07-31 23:47:00,
2013-07-31 19:52:00,79.0,79.0,30.01,SSE,165,0.0,0.0,100,0.00,,,1.65,0.0,meteohub,2013-07-31 23:52:00,
2013-07-31 19:57:00,79.0,79.0,30.01,SSE,164,0.0,0.0,100,0.00,,,1.65,0.0,meteohub,2013-07-31 23:57:00,
2013-07-31 20:02:00,79.0,79.0,30.01,SSE,165,0.0,0.0,100,0.00,,,1.65,0.0,meteohub,2013-08-01 00:02:00,
2013-07-31 20:07:00,79.0,79.0,30.01,SSE,162,0.0,0.0,100,0.00,,,1.65,0.0,meteohub,2013-08-01 00:07:00,
2013-07-31 20:12:00,79.0,79.0,30.02,SSE,162,0.0,0.0,100,0.00,,,1.65,0.0,meteohub,2013-08-01 00:12:00,
2013-07-31 20:17:00,79.0,79.0,30.02,SSE,164,0.0,0.0,100,0.00,,,1.65,0.0,meteohub,2013-08-01 00:17:00,
2013-07-31 20:22:00,79.0,79.0,30.02,SSE,164,0.0,0.0,100,0.00,,,1.65,0.0,meteohub,2013-08-01 00:22:00,
2013-07-31 20:27:00,79.0,79.0,30.02,SSE,164,0.0,0.0,100,0.00,,,1.65,0.0,meteohub,2013-08-01 00:27:00,
2013-07-31 20:32:00,79.0,79.0,30.02,SSE,164,0.0,0.0,100,0.00,,,1.65,0.0,meteohub,2013-08-01 00:32:00,
2013-07-31 20:37:00,79.0,79.0,30.02,SSE,164,0.0,0.0,100,0.00,,,1.65,0.0,meteohub,2013-08-01 00:37:00,
2013-07-31 20:42:00,79.2,79.2,30.03,SSE,164,0.0,0.0,100,0.00,,,1.65,0.0,meteohub,2013-08-01 00:42:00,
2013-07-31 20:47:00,79.0,79.0,30.03,SSE,164,0.0,0.0,100,0.00,,,1.65,0.0,meteohub,2013-08-01 00:47:00,
2013-07-31 20:52:00,79.0,79.0,30.03,SSE,164,0.0,0.0,100,0.00,,,1.65,0.0,meteohub,2013-08-01 00:52:00,
2013-07-31 20:57:00,79.0,79.0,30.03,SSE,162,0.0,0.0,100,0.00,,,1.65,0.0,meteohub,2013-08-01 00:57:00,
2013-07-31 21:03:00,79.0,79.0,30.03,SSE,165,0.0,0.0,100,0.00,,,1.65,0.0,meteohub,2013-08-01 01:03:00,
2013-07-31 21:08:00,78.8,78.8,30.03,SSE,164,0.0,0.0,100,0.00,,,1.65,0.0,meteohub,2013-08-01 01:08:00,
2013-07-31 21:13:00,79.0,79.0,30.04,SSE,164,0.0,0.0,100,0.00,,,1.65,0.0,meteohub,2013-08-01 01:13:00,
2013-07-31 21:18:00,79.0,79.0,30.04,SSE,165,0.0,0.0,100,0.00,,,1.65,0.0,meteohub,2013-08-01 01:18:00,
2013-07-31 21:23:00,78.8,78.8,30.04,SSE,164,0.0,0.0,100,0.00,,,1.65,0.0,meteohub,2013-08-01 01:23:00,
2013-07-31 21:28:00,78.6,78.6,30.04,SSE,164,0.0,0.0,100,0.00,,,1.65,0.0,meteohub,2013-08-01 01:28:00,
2013-07-31 21:33:00,78.6,78.6,30.04,SSE,165,0.0,0.0,100,0.00,,,1.65,0.0,meteohub,2013-08-01 01:33:00,
2013-07-31 21:38:00,78.6,78.6,30.04,SSE,162,0.0,0.0,100,0.00,,,1.65,0.0,meteohub,2013-08-01 01:38:00,
2013-07-31 21:43:00,78.8,78.8,30.05,SSE,162,0.0,0.0,100,0.00,,,1.65,0.0,meteohub,2013-08-01 01:43:00,
2013-07-31 21:48:00,78.6,78.6,30.05,SSE,164,0.0,0.0,100,0.00,,,1.65,0.0,meteohub,2013-08-01 01:48:00,
2013-07-31 21:53:00,78.6,78.6,30.05,SSE,162,0.0,0.0,100,0.00,,,1.65,0.0,meteohub,2013-08-01 01:53:00,
2013-07-31 21:58:00,78.4,78.4,30.05,SSE,165,0.0,0.0,100,0.00,,,1.65,0.0,meteohub,2013-08-01 01:58:00,
2013-07-31 22:03:00,78.4,78.4,30.05,SSE,164,0.0,0.0,100,0.00,,,1.65,0.0,meteohub,2013-08-01 02:03:00,
2013-07-31 22:08:00,78.3,78.3,30.05,SSE,162,0.0,0.0,100,0.00,,,1.65,0.0,meteohub,2013-08-01 02:08:00,
2013-07-31 22:13:00,78.4,78.4,30.05,SSE,164,0.0,0.0,100,0.00,,,1.65,0.0,meteohub,2013-08-01 02:13:00,
2013-07-31 22:18:00,78.4,78.4,30.05,SSE,164,0.0,0.0,100,0.00,,,1.65,0.0,meteohub,2013-08-01 02:18:00,
2013-07-31 22:23:00,78.4,78.4,30.05,SSE,164,0.0,0.0,100,0.00,,,1.65,0.0,meteohub,2013-08-01 02:23:00,
2013-07-31 22:28:00,78.3,78.3,30.05,SSE,164,0.0,0.0,100,0.00,,,1.65,0.0,meteohub,2013-08-01 02:28:00,
2013-07-31 22:33:00,78.3,78.3,30.05,SSE,164,0.0,0.0,100,0.00,,,1.65,0.0,meteohub,2013-08-01 02:33:00,
2013-07-31 22:39:00,78.3,78.3,30.05,SSE,164,0.0,0.0,100,0.00,,,1.65,0.0,meteohub,2013-08-01 02:39:00,
2013-07-31 22:44:00,78.4,78.4,30.04,SSE,164,0.0,0.0,100,0.00,,,1.65,0.0,meteohub,2013-08-01 02:44:00,
2013-07-31 22:49:00,78.3,78.3,30.04,SSE,164,0.0,0.0,100,0.00,,,1.65,0.0,meteohub,2013-08-01 02:49:00,
2013-07-31 22:54:00,78.1,78.1,30.04,SSE,165,0.0,0.0,100,0.00,,,1.65,0.0,meteohub,2013-08-01 02:54:00,
2013-07-31 22:59:00,78.3,78.3,30.05,SSE,162,0.0,0.0,100,0.00,,,1.65,0.0,meteohub,2013-08-01 02:59:00,
2013-07-31 23:04:00,78.3,78.3,30.05,SSE,164,0.0,0.0,100,0.00,,,1.65,0.0,meteohub,2013-08-01 03:04:00,
2013-07-31 23:09:00,78.3,78.3,30.05,SSE,164,0.0,0.0,100,0.00,,,1.65,0.0,meteohub,2013-08-01 03:09:00,
2013-07-31 23:14:00,78.3,78.3,30.04,SSE,164,0.0,0.0,100,0.00,,,1.65,0.0,meteohub,2013-08-01 03:14:00,
2013-07-31 23:19:00,78.1,78.1,30.04,SSE,164,0.0,0.0,100,0.00,,,1.65,0.0,meteohub,2013-08-01 03:19:00,
2013-07-31 23:24:00,78.1,78.1,30.04,SSE,164,0.0,0.0,100,0.00,,,1.65,0.0,meteohub,2013-08-01 03:24:00,
2013-07-31 23:29:00,78.1,78.1,30.04,SSE,164,0.0,0.0,100,0.00,,,1.65,0.0,meteohub,2013-08-01 03:29:00,
2013-07-31 23:34:00,78.1,78.1,30.04,SSE,164,0.0,0.0,100,0.00,,,1.65,0.0,meteohub,2013-08-01 03:34:00,
2013-07-31 23:39:00,78.1,78.1,30.04,SSE,164,0.0,0.0,100,0.00,,,1.65,0.0,meteohub,2013-08-01 03:39:00,
2013-07-31 23:44:00,78.1,78.1,30.05,SSE,164,0.0,0.0,100,0.00,,,1.65,0.0,meteohub,2013-08-01 03:44:00,
2013-07-31 23:49:00,77.9,77.9,30.05,SSE,164,0.0,0.0,100,0.00,,,1.65,0.0,meteohub,2013-08-01 03:49:00,
2013-07-31 23:54:00,77.9,77.9,30.05,SSE,164,0.0,0.0,100,0.00,,,1.65,0.0,meteohub,2013-08-01 03:54:00,
2013-07-31 23:59:00,77.9,77.9,30.04,SSE,165,0.0,0.0,100,0.00,,,1.65,0.0,meteohub,2013-08-01 03:59:00,